Вернуться в каталог

FENGYUN 1C DEB

АктивенPO
NORAD 35195·DEBRIS·🇨🇳 China

Запущен May 10, 1999 с Taiyuan Satellite Launch Center

Loading…

Ближайшие Пролёты (ближайшие 24 часа)

TLE

СвежийSource: Space-Track

Эпоха: Sep 13, 2026, 04:35 UTC

1 35195U 99025DPB 26256.19115497  .00001789  00000-0  37645-3 0  9999
2 35195  98.9954  17.0122 0098699 315.4076  43.9210 14.57999615949231

Отслеживайте FENGYUN 1C DEB в реальном времени с AllMySat

Download on the App Store